User: anonymous   Login
Location: Cella
(44.7333°N, 10.5667°E)
Time: 23:07:31
(UTC+00:00)
Language:

SL-08 RB Rocket - Orbit

View from above orbital plane
View from above orbital plane
View from above satellite
View from above satellite

Ground track
Ground track

The orbit data is extracted from the following two-line orbital elements,

1 26387U 00033D   21128.32293758  .00000052  00000-0  16828-4 0  9991
2 26387  97.7774 160.8458 0027673 124.4300 246.5370 14.68698742116448
Epoch (UTC): 08 May 2021 07:45:01
Eccentricity: 0.0027673
inclination: 97.7774°
perigee height: 646 km
apogee height: 685 km
right ascension of ascending node: 160.8458°
argument of perigee: 124.4300°
revolutions per day: 14.68698742
mean anomaly at epoch: 246.5370°
orbit number at epoch: 11644

The dashed part of the orbit path shows where the satellite is in the earth's shadow,  

DLR